Stündliche Wetter Abanilla

Heute, 2 März, Dienstag

Zeit Temperatur Niederschläge Wind Luftdruck Luftfeuchtigkeit
00:00 +10°C° 0 mm 3 m/S 744 mmHg 87%
01:00 +10°C° 0.1 mm 3 m/S 744 mmHg 87%
02:00 +10°C° 0.1 mm 3 m/S 744 mmHg 87%
03:00 +10°C° 0.1 mm 2 m/S 744 mmHg 87%
04:00 +9°C° 0 mm 2 m/S 744 mmHg 87%
05:00 +9°C° 0 mm 2 m/S 745 mmHg 88%
06:00 +9°C° 0 mm 2 m/S 745 mmHg 88%
07:00 +10°C° 0 mm 2 m/S 745 mmHg 82%
08:00 +13°C° 0 mm 2 m/S 746 mmHg 77%
09:00 +14°C° 0 mm 2 m/S 746 mmHg 71%
10:00 +16°C° 0 mm 2 m/S 746 mmHg 65%
11:00 +17°C° 0 mm 3 m/S 747 mmHg 60%
12:00 +18°C° 0 mm 3 m/S 747 mmHg 54%
13:00 +18°C° 0 mm 4 m/S 747 mmHg 55%
14:00 +17°C° 0 mm 5 m/S 746 mmHg 56%
15:00 +17°C° 0 mm 6 m/S 746 mmHg 57%
16:00 +16°C° 0 mm 5 m/S 746 mmHg 62%
17:00 +15°C° 0 mm 4 m/S 746 mmHg 68%
18:00 +14°C° 0 mm 3 m/S 747 mmHg 73%
19:00 +13°C° 0 mm 3 m/S 747 mmHg 77%
20:00 +12°C° 0 mm 3 m/S 748 mmHg 81%
21:00 +12°C° 0 mm 3 m/S 748 mmHg 85%
22:00 +12°C° 0 mm 3 m/S 748 mmHg 85%
23:00 +13°C° 0 mm 2 m/S 749 mmHg 85%

Morgen, 3 März, Mittwoch

Zeit Temperatur Niederschläge Wind Luftdruck Luftfeuchtigkeit
00:00 +12°C° 0 mm 2 m/S 749 mmHg 86%
01:00 +12°C° 0 mm 2 m/S 749 mmHg 86%
02:00 +12°C° 0 mm 2 m/S 748 mmHg 87%
03:00 +10°C° 0 mm 2 m/S 748 mmHg 88%
04:00 +10°C° 0 mm 2 m/S 748 mmHg 88%
05:00 +10°C° 0 mm 2 m/S 748 mmHg 89%
06:00 +9°C° 0 mm 2 m/S 748 mmHg 90%
07:00 +12°C° 0 mm 2 m/S 749 mmHg 84%
08:00 +13°C° 0 mm 2 m/S 749 mmHg 79%
09:00 +14°C° 0 mm 2 m/S 749 mmHg 73%
10:00 +15°C° 0 mm 2 m/S 749 mmHg 68%
11:00 +16°C° 0 mm 3 m/S 749 mmHg 63%
12:00 +17°C° 0 mm 3 m/S 749 mmHg 59%
13:00 +17°C° 0 mm 4 m/S 748 mmHg 59%
14:00 +18°C° 0 mm 4 m/S 748 mmHg 60%
15:00 +17°C° 0 mm 5 m/S 747 mmHg 61%
16:00 +15°C° 0 mm 4 m/S 747 mmHg 65%
17:00 +14°C° 0 mm 4 m/S 747 mmHg 70%
18:00 +13°C° 0 mm 3 m/S 747 mmHg 74%
19:00 +12°C° 0 mm 3 m/S 747 mmHg 78%
20:00 +12°C° 0 mm 2 m/S 747 mmHg 82%
21:00 +11°C° 0 mm 1 m/S 747 mmHg 86%
22:00 +11°C° 0 mm 1 m/S 747 mmHg 85%
23:00 +11°C° 0 mm 1 m/S 747 mmHg 85%

übermorgen, 4 März, Donnerstag

Zeit Temperatur Niederschläge Wind Luftdruck Luftfeuchtigkeit
00:00 +10°C° 0 mm 1 m/S 747 mmHg 85%
01:00 +10°C° 0 mm 1 m/S 746 mmHg 85%
02:00 +10°C° 0 mm 1 m/S 746 mmHg 86%
03:00 +9°C° 0 mm 1 m/S 745 mmHg 86%
04:00 +9°C° 0 mm 1 m/S 745 mmHg 87%
05:00 +8°C° 0 mm 1 m/S 745 mmHg 88%
06:00 +8°C° 0 mm 1 m/S 744 mmHg 89%
07:00 +10°C° 0 mm 1 m/S 744 mmHg 82%
08:00 +11°C° 0 mm 1 m/S 744 mmHg 75%
09:00 +13°C° 0 mm 1 m/S 745 mmHg 68%
10:00 +14°C° 0 mm 2 m/S 744 mmHg 64%
11:00 +14°C° 0 mm 2 m/S 744 mmHg 59%
12:00 +15°C° 0 mm 2 m/S 744 mmHg 55%
13:00 +16°C° 0 mm 3 m/S 743 mmHg 54%
14:00 +16°C° 0 mm 3 m/S 742 mmHg 53%
15:00 +17°C° 0 mm 4 m/S 742 mmHg 52%
16:00 +14°C° 0 mm 3 m/S 742 mmHg 60%
17:00 +13°C° 0 mm 3 m/S 741 mmHg 69%
18:00 +12°C° 0 mm 3 m/S 741 mmHg 78%
19:00 +12°C° 0 mm 2 m/S 742 mmHg 83%
20:00 +10°C° 0 mm 2 m/S 742 mmHg 88%
21:00 +10°C° 0 mm 1 m/S 742 mmHg 93%
22:00 +10°C° 0 mm 1 m/S 742 mmHg 93%
23:00 +10°C° 0 mm 1 m/S 742 mmHg 93%

5 März, Freitag

Zeit Temperatur Niederschläge Wind Luftdruck Luftfeuchtigkeit
00:00 +9°C° 0 mm 1 m/S 741 mmHg 93%
01:00 +9°C° 0 mm 1 m/S 741 mmHg 93%
02:00 +9°C° 0 mm 1 m/S 741 mmHg 92%
03:00 +8°C° 0 mm 0 m/S 741 mmHg 92%
04:00 +9°C° 0 mm 1 m/S 740 mmHg 92%
05:00 +8°C° 0 mm 1 m/S 740 mmHg 93%
06:00 +8°C° 0 mm 1 m/S 740 mmHg 93%
07:00 +9°C° 0 mm 1 m/S 740 mmHg 87%
08:00 +11°C° 0 mm 1 m/S 741 mmHg 81%
09:00 +12°C° 0 mm 1 m/S 741 mmHg 74%
10:00 +14°C° 0 mm 1 m/S 741 mmHg 67%
11:00 +15°C° 0 mm 2 m/S 741 mmHg 59%
12:00 +16°C° 0 mm 2 m/S 741 mmHg 52%
13:00 +16°C° 0 mm 3 m/S 740 mmHg 51%
14:00 +16°C° 0 mm 3 m/S 740 mmHg 51%
15:00 +15°C° 0 mm 4 m/S 740 mmHg 50%
16:00 +14°C° 0 mm 3 m/S 740 mmHg 57%
17:00 +13°C° 0 mm 3 m/S 740 mmHg 64%
18:00 +13°C° 0 mm 2 m/S 740 mmHg 72%
19:00 +12°C° 0 mm 2 m/S 740 mmHg 77%
20:00 +12°C° 0 mm 1 m/S 741 mmHg 82%
21:00 +11°C° 0 mm 1 m/S 741 mmHg 87%
22:00 +11°C° 0 mm 1 m/S 741 mmHg 87%
23:00 +11°C° 0 mm 1 m/S 741 mmHg 86%

6 März, Samstag

Zeit Temperatur Niederschläge Wind Luftdruck Luftfeuchtigkeit
00:00 +10°C° 0 mm 1 m/S 742 mmHg 86%
01:00 +10°C° 0 mm 1 m/S 741 mmHg 86%
02:00 +9°C° 0 mm 1 m/S 741 mmHg 86%
03:00 +9°C° 0 mm 1 m/S 741 mmHg 86%
04:00 +9°C° 0 mm 1 m/S 741 mmHg 86%
05:00 +8°C° 0 mm 1 m/S 742 mmHg 86%
06:00 +8°C° 0 mm 1 m/S 742 mmHg 86%
07:00 +9°C° 0 mm 2 m/S 742 mmHg 78%
08:00 +10°C° 0 mm 2 m/S 743 mmHg 70%
09:00 +13°C° 0 mm 2 m/S 743 mmHg 62%
10:00 +13°C° 0 mm 3 m/S 743 mmHg 59%
11:00 +14°C° 0 mm 4 m/S 743 mmHg 57%
12:00 +15°C° 0 mm 4 m/S 743 mmHg 54%
13:00 +14°C° 0.1 mm 4 m/S 742 mmHg 58%
14:00 +14°C° 0.1 mm 5 m/S 742 mmHg 63%
15:00 +13°C° 0.1 mm 5 m/S 742 mmHg 67%
16:00 +13°C° 0.3 mm 5 m/S 742 mmHg 71%
17:00 +12°C° 0.3 mm 4 m/S 742 mmHg 76%
18:00 +11°C° 0.3 mm 4 m/S 742 mmHg 80%
19:00 +11°C° 0 mm 3 m/S 742 mmHg 79%
20:00 +11°C° 0 mm 3 m/S 743 mmHg 78%
21:00 +12°C° 0 mm 2 m/S 743 mmHg 77%
22:00 +12°C° 0.2 mm 2 m/S 743 mmHg 79%
23:00 +12°C° 0.2 mm 2 m/S 743 mmHg 80%

7 März, Sonntag

Zeit Temperatur Niederschläge Wind Luftdruck Luftfeuchtigkeit
00:00 +12°C° 0.2 mm 2 m/S 743 mmHg 82%
01:00 +11°C° 1.3 mm 3 m/S 743 mmHg 84%
02:00 +11°C° 1.3 mm 3 m/S 742 mmHg 87%
03:00 +10°C° 1.3 mm 3 m/S 742 mmHg 89%
04:00 +10°C° 3.1 mm 4 m/S 742 mmHg 90%
05:00 +10°C° 3.1 mm 4 m/S 742 mmHg 90%
06:00 +10°C° 3.1 mm 4 m/S 742 mmHg 90%
07:00 +10°C° 1.9 mm 4 m/S 742 mmHg 88%
08:00 +10°C° 1.9 mm 4 m/S 742 mmHg 85%
09:00 +11°C° 1.9 mm 4 m/S 742 mmHg 82%
10:00 +11°C° 2.6 mm 4 m/S 742 mmHg 82%
11:00 +11°C° 2.6 mm 4 m/S 742 mmHg 82%
12:00 +11°C° 2.6 mm 4 m/S 742 mmHg 82%
13:00 +11°C° 1.1 mm 4 m/S 742 mmHg 79%
14:00 +11°C° 1.1 mm 4 m/S 742 mmHg 76%
15:00 +11°C° 1.1 mm 4 m/S 742 mmHg 73%
16:00 +11°C° 0 mm 3 m/S 741 mmHg 74%
17:00 +10°C° 0 mm 2 m/S 741 mmHg 75%
18:00 +10°C° 0 mm 2 m/S 741 mmHg 76%
19:00 +9°C° 0 mm 2 m/S 742 mmHg 78%
20:00 +10°C° 0 mm 1 m/S 742 mmHg 80%
21:00 +9°C° 0 mm 1 m/S 743 mmHg 82%
22:00 +8°C° 0 mm 2 m/S 743 mmHg 82%
23:00 +8°C° 0 mm 2 m/S 743 mmHg 82%
Mehr zeigen

Wir brauchen deine Erlaubnis

Meteoprog und unser Service Anbieter werden persönliche Daten aufbewahren, so wie Cookies, Geräte Bezeichnung oder ähnliche Technologien von deinem Gerät und Prozess, so wie Persönliche Daten Inhalte und Werbungen, genauso wie social Media und den Verkehr zu analysieren.

  • Aufbewahrung und/oder Zugang zu deiner Geräte Informationen.

    Cookies, Geräte Bezeichnung oder andere Informationen, können aufbewahrt oder Zugang zu deinem Gerät erhalten, für den Grund, der oben angegeben wird.

  • Personalisierte Werbung und Inhalte, Messungen, Einblick in das Publikum und Produkt Entwicklung.

    Werbungen und Inhalte können personalisiert werden, basierend auf ein Profil. Mehr Daten können besser personalisierte Werbungen und Inhalte hinzufügen. Werbung und Inhalte können gezeigt und gemessen werden. Einblicke über das Publikum, welche die Werbung gesehen haben und den Inhalt, können abgeleitet werden. So wie Daten können genutzt werden, um es zu verbessern oder die Benutzer Erfahrung zu verbessern das System und die Software.

Wenn du “Ich stimme zu” klickst, erlaubst du uns, die Cookies zu benutzen die Geräte Bezeichnung, den Web oder ähnliche Technologien zu benutzen. Deine Settings, können in deinem Gerät bei deinem Browser geändert werden.

Für den bestimmten Zweck, berechtigten Interessen beruhen darauf, mehr als auf den Inhalt. Du kannst mehr darüber in unseren Privaten und Cookie Politik lesen.